Flag for USA

Past Weather in Babylon, New York, USA — Yesterday and Last 2 Weeks

Now
70 °F

Mostly cloudy.


Feels Like: 67 °F
Forecast: 72 / 67 °F
Wind: 12 mph from South

Location: Republic Airport
Current Time: Sep 28, 2020 at 6:12:50 am
Latest Report: Sep 28, 2020 at 5:42 am
Visibility: 10 mi
Pressure29.90 "Hg
Humidity: 90%
Dew Point: 67 °F
Location of BabylonLocation

Past Weather in Babylon — Graph

°F

Babylon Temperature Yesterday

Maximum temperature yesterday: 78 °F (at 3:53 pm)
Minimum temperature yesterday: 67 °F (at 2:53 am)
Average temperature yesterday: 71 °F

High & Low Weather Summary for the Past Weeks

 TemperatureHumidityPressure
High80 °F (Sep 23, 2:53 pm)97% (Sep 27, 2:53 am)30.57 "Hg (Sep 27, 2:53 am)
Low46 °F (Sep 21, 6:53 am)23% (Sep 22, 3:53 pm)29.80 "Hg (Sep 23, 3:53 pm)
Average65 °F67%30.11 "Hg
* Reported Sep 13 4:53 am — Sep 28 4:53 am, Babylon. Weather by CustomWeather, © 2020

Note: Actual official high and low records may vary slightly from our data, if they occured in-between our weather recording intervals... More about our weather records

Babylon Weather History for the Previous 24 Hours

Scroll right to see more
 ConditionsComfort  
Time TempWeatherWind HumidityBarometerVisibility
4:53 am
Mon, Sep 28
70 °FMostly cloudy.12 mph90%29.89 "Hg10 mi
4:26 am70 °FMostly cloudy.15 mph93%29.90 "Hg10 mi
3:53 am70 °FFog.17 mph93%29.90 "Hg6 mi
3:31 am70 °FFog.15 mph93%29.90 "Hg3 mi
2:53 am70 °FFog.14 mph97%29.90 "Hg1 mi
2:23 am70 °FFog.15 mph93%29.91 "Hg1 mi
1:53 am70 °FFog.15 mph93%29.90 "Hg1 mi
1:42 am70 °FFog.20 mph93%29.91 "Hg1 mi
1:10 am70 °FLight rain. Fog.17 mph93%29.91 "Hg2 mi
12:53 am70 °FLight rain. Fog.18 mph93%29.91 "Hg1 mi
12:31 am70 °FFog.12 mph93%29.91 "Hg2 mi
12:03 am70 °FFog.12 mph93%29.92 "Hg4 mi
11:53 pm
Sun, Sep 27
70 °FFog.10 mph93%29.92 "Hg2 mi
11:30 pm70 °FFog.12 mph93%29.93 "Hg3 mi
11:13 pm70 °FFog.14 mph93%29.93 "Hg2 mi
10:53 pm70 °FFog.12 mph97%29.93 "Hg1 mi
10:15 pm71 °FFog.7 mph93%29.93 "Hg2 mi
9:35 pm71 °FFog.12 mph93%29.93 "Hg5 mi
8:53 pm72 °FLow clouds.9 mph91%29.93 "Hg10 mi
7:53 pm72 °FMostly cloudy.9 mph87%29.93 "Hg10 mi
6:53 pm72 °FLow clouds.6 mph87%29.94 "Hg10 mi
6:43 pm73 °FMostly cloudy.7 mph84%29.94 "Hg10 mi
6:03 pm73 °FMostly cloudy.8 mph84%29.94 "Hg10 mi
5:56 pm73 °FCloudy.8 mph84%29.94 "Hg10 mi
5:07 pm74 °FMostly cloudy.12 mph82%29.95 "Hg10 mi
4:53 pm75 °FBroken clouds.10 mph79%29.94 "Hg10 mi
3:53 pm78 °FPassing clouds.10 mph71%29.95 "Hg10 mi
3:26 pm77 °FScattered clouds.6 mph74%29.96 "Hg10 mi
2:53 pm77 °FPartly sunny.6 mph71%29.95 "Hg10 mi
2:28 pm76 °FMostly cloudy.7 mph74%29.96 "Hg10 mi
1:53 pm77 °FOvercast.9 mph71%29.97 "Hg10 mi
1:11 pm77 °FCloudy.10 mph71%29.99 "Hg10 mi
12:53 pm77 °FMostly cloudy.9 mph71%29.99 "Hg10 mi
12:07 pm77 °FPartly sunny.5 mph69%30.00 "Hg10 mi
11:53 am76 °FScattered clouds.5 mph72%30.01 "Hg10 mi
10:53 am75 °FBroken clouds.9 mph71%30.02 "Hg10 mi
10:22 am73 °FMore clouds than sun.9 mph79%30.03 "Hg10 mi
10:12 am72 °FMostly cloudy.9 mph81%30.03 "Hg10 mi
9:53 am71 °FMore clouds than sun.5 mph84%30.03 "Hg10 mi
8:53 am70 °FMostly cloudy.No wind90%30.02 "Hg10 mi
8:28 am68 °FLow clouds.6 mph93%30.01 "Hg7 mi
7:53 am68 °FFog.3 mph90%30.01 "Hg4 mi
7:35 am67 °FFog.3 mph93%30.01 "Hg2 mi
6:53 am67 °FMostly cloudy.5 mph93%30.00 "Hg10 mi
Weather by CustomWeather, © 2020

See weather overview